View from above orbital plane
|
View from above satellite
|
Ground track
|
The orbit data is extracted from the following two-line orbital elements,
1 00050U 60009B 21056.39038034 -.00000090 00000-0 -39720-4 0 9990
2 00050 47.2326 56.2398 0113677 359.1034 0.9538 12.20114979701104
Epoch (UTC): | 25 February 2021 09:22:08 |
Eccentricity: | 0.0113677 |
inclination: | 47.2326° |
perigee height: | 1501 km |
apogee height: | 1682 km |
right ascension of ascending node: | 56.2398° |
argument of perigee: | 359.1034° |
revolutions per day: | 12.20114979 |
mean anomaly at epoch: | 0.9538° |
orbit number at epoch: | 70110 |
The dashed part of the orbit path shows where the satellite is in the earth's shadow,
|
|